Zurück zum Katalog

BEIDOU 3

AktivNavigationGEO
NORAD 36287·PAYLOAD·🇨🇳 China

Gestartet Jan 16, 2010 von Xichang Satellite Launch Center

Loading…

TLE

AktuellSource: Space-Track

Epoche: Sep 14, 2026, 09:20 UTC

1 36287U 10001A   26257.38912520 -.00000288  00000-0  00000-0 0  9999
2 36287   4.4994  60.0320 0002099 249.8945 323.9611  1.00268687 61066

Verfolge BEIDOU 3 in Echtzeit mit AllMySat

Download on the App Store